Location: Casilda
(33.0440°S, 61.1680°W)
Time: 18:00:00
(UTC-03:00)

ISS - Pass Details

Date: 23 March 2023
Orbit: 413 x 421 km, 51.6° (Epoch: 30 March)

Event Time Altitude Azimuth Distance (km) Brightness Sun altitude
Exits shadow 05:19:51 43° 130° (SE) 606 -2.6 -23.7°
Drops below altitude 10° 05:22:17 10° 133° (SE) 1,526 -0.1 -23.2°
Sets 05:24:24 0° 133° (SE) 2,399 1.1 -22.7°
